FW4518 Weather Reports


Display with metric or nautical units.
time (UTC)temp
F
wind
direction
speed
MPH
gust
MPH
rain 1hr
in
rain 24hr
in
rain mn
in
humidity
%
barometer
mb
20260506175631 73 209 4.0 7.0 0.00 0.00 0.00 50 1019.3
20260506174631 73 207 2.0 5.0 0.00 0.00 0.00 51 1019.3
20260506173632 72 197 2.0 6.0 0.00 0.00 0.00 52 1019.3
20260506172632 71 125 4.0 7.0 0.00 0.00 0.00 54 1019.3
20260506171632 70 203 3.0 6.0 0.00 0.00 0.00 56 1019.4
20260506170631 69 154 3.0 7.0 0.00 0.00 0.00 57 1019.5
20260506165652 68 166 4.0 7.0 0.00 0.00 0.00 59 1019.6
20260506164712 67 66 4.0 7.0 0.00 0.00 0.00 60 1019.6
20260506163633 66 145 4.0 8.0 0.00 0.00 0.00 60 1019.6
20260506162652 65 181 4.0 7.0 0.00 0.00 0.00 62 1019.6
20260506161632 63 157 4.0 8.0 0.00 0.00 0.00 64 1019.7
20260506160632 63 145 4.0 7.0 0.00 0.00 0.00 64 1019.8
20260506155652 62 72 4.0 8.0 0.00 0.00 0.00 65 1019.7
20260506154632 61 92 3.0 9.0 0.00 0.00 0.00 66 1019.7
20260506153632 60 40 6.0 10.0 0.00 0.00 0.00 69 1019.7
20260506152632 59 111 5.0 8.0 0.00 0.00 0.00 70 1019.8
20260506151632 58 96 6.0 10.0 0.00 0.00 0.00 72 1019.8
20260506150632 58 43 7.0 10.0 0.00 0.00 0.00 73 1019.6
20260506145632 57 133 5.0 8.0 0.00 0.00 0.00 74 1019.7
20260506144652 57 113 5.0 8.0 0.00 0.00 0.00 76 1019.7
20260506143631 56 71 5.0 7.0 0.00 0.00 0.00 75 1019.5
20260506142633 56 135 6.0 8.0 0.00 0.00 0.00 74 1019.4
20260506141632 56 68 3.0 5.0 0.00 0.00 0.00 76 1019.3
20260506140652 54 40 3.0 7.0 0.00 0.00 0.00 80 1019.1
20260506135632 53 84 4.0 5.0 0.00 0.00 0.00 82 1019.0
20260506134632 51 156 2.0 5.0 0.00 0.00 0.00 84 1018.9
20260506133632 51 205 3.0 5.0 0.00 0.00 0.00 84 1018.9
20260506132652 53 106 3.0 5.0 0.00 0.00 0.00 80 1018.8
20260506131632 52 159 1.0 5.0 0.00 0.00 0.00 80 1018.7
20260506130632 51 67 3.0 6.0 0.00 0.00 0.00 82 1018.6
20260506125652 48 154 2.0 4.0 0.00 0.00 0.00 86 1018.8
20260506124652 48 191 3.0 4.0 0.00 0.00 0.00 86 1018.9
20260506123632 49 144 3.0 6.0 0.00 0.00 0.00 86 1018.8
20260506122632 49 105 3.0 6.0 0.00 0.00 0.00 86 1018.6
20260506121632 49 172 4.0 7.0 0.00 0.00 0.00 89 1018.5
20260506120632 49 158 4.0 6.0 0.00 0.00 0.00 87 1018.4
20260506115632 48 194 2.0 4.0 0.00 0.00 0.00 91 1018.4
20260506114632 49 205 1.0 4.0 0.00 0.00 0.00 87 1018.3
20260506113652 49 0.0 0.0 0.00 0.00 0.00 87 1018.1
20260506112652 49 0.0 0.0 0.00 0.00 0.00 87 1018.0
20260506111632 49 0.0 1.0 0.00 0.00 0.00 89 1018.0
20260506110632 49 0.0 0.0 0.00 0.00 0.00 90 1018.0
20260506105632 50 0.0 0.0 0.00 0.00 0.00 88 1017.9
20260506104632 50 173 0.0 2.0 0.00 0.00 0.00 88 1017.8
20260506103632 48 0.0 0.0 0.00 0.00 0.00 98 1017.8
20260506102712 48 0.0 0.0 0.00 0.00 0.00 98 1017.8
20260506101632 48 0.0 0.0 0.00 0.00 0.00 99 1017.7
20260506100632 49 0.0 0.0 0.00 0.00 0.00 98 1017.7
20260506095632 49 0.0 0.0 0.00 0.00 0.00 97 1017.7
20260506094652 49 0.0 0.0 0.00 0.00 0.00 95 1017.6
20260506093632 50 0.0 0.0 0.00 0.00 0.00 95 1017.6
20260506092632 50 0.0 0.0 0.00 0.00 0.00 93 1017.5
20260506091632 51 0.0 0.0 0.00 0.00 0.00 92 1017.5
20260506090632 50 0.0 0.0 0.00 0.00 0.00 92 1017.4
20260506085632 51 0.0 1.0 0.00 0.00 0.00 92 1017.4
20260506084632 51 0.0 0.0 0.00 0.00 0.00 90 1017.4
20260506083632 52 0.0 0.0 0.00 0.00 0.00 90 1017.4
20260506082652 53 0.0 0.0 0.00 0.00 0.00 90 1017.4
20260506081652 53 0.0 0.0 0.00 0.00 0.00 88 1017.3
20260506080632 54 0.0 0.0 0.00 0.00 0.00 87 1017.2
20260506072713 56 0.0 0.0 0.00 0.00 0.00 85 1016.8
20260506071632 55 0.0 0.0 0.00 0.00 0.00 86 1016.7
20260506070632 56 0.0 0.0 0.00 0.00 0.00 83 1016.6
20260506061632 59 0.0 0.0 0.00 0.00 0.00 77 1016.1
20260506060652 60 0.0 0.0 0.00 0.00 0.00 71 1016.0
20260506050632 61 0.0 0.0 0.00 0.00 0.00 68 1015.5
20260506044632 62 0.0 0.0 0.00 0.00 0.00 61 1015.3
20260506043652 63 0.0 0.0 0.00 0.00 0.00 61 1015.2
20260506042632 64 0.0 1.0 0.00 0.00 0.00 61 1015.0
20260506041633 65 0.0 0.0 0.00 0.00 0.00 56 1014.8
20260506040633 66 0.0 0.0 0.00 0.00 0.00 60 1014.7
20260506035712 68 0.0 0.0 0.00 0.00 0.00 58 1014.5
20260506034633 70 9 0.0 2.0 0.00 0.00 0.00 54 1014.2
20260506033632 72 6 1.0 2.0 0.00 0.00 0.00 50 1014.0
20260506032634 73 6 1.0 3.0 0.00 0.00 0.00 49 1013.9
20260506031632 74 4 1.0 4.0 0.00 0.00 0.00 47 1013.8
20260506030632 74 16 2.0 4.0 0.00 0.00 0.00 46 1013.7
20260506025635 75 8 3.0 5.0 0.00 0.00 0.00 44 1013.6
20260506024633 75 4 3.0 6.0 0.00 0.00 0.00 45 1013.5
20260506023632 76 45 4.0 8.0 0.00 0.00 0.00 44 1013.4
20260506022635 76 17 4.0 6.0 0.00 0.00 0.00 44 1013.3
20260506021713 76 13 4.0 7.0 0.00 0.00 0.00 43 1013.3
20260506020632 76 16 5.0 8.0 0.00 0.00 0.00 43 1013.2
20260506015633 76 44 4.0 7.0 0.00 0.00 0.00 43 1013.2
20260506014632 76 21 6.0 9.0 0.00 0.00 0.00 44 1013.2
20260506013633 77 357 5.0 8.0 0.00 0.00 0.00 42 1013.1
20260506012633 77 40 6.0 10.0 0.00 0.00 0.00 42 1013.1
20260506011633 79 14 6.0 10.0 0.00 0.00 0.00 41 1013.0
20260506010634 79 22 6.0 11.0 0.00 0.00 0.00 40 1012.9
20260506005633 79 91 6.0 12.0 0.00 0.00 0.00 41 1012.9
20260506004633 79 350 7.0 13.0 0.00 0.00 0.00 41 1012.8
20260506003633 80 17 5.0 10.0 0.00 0.00 0.00 41 1012.8
20260506002634 79 7 9.0 14.0 0.00 0.00 0.00 40 1012.8
20260506001633 80 334 4.0 10.0 0.00 0.00 0.00 40 1012.7
20260506000633 79 22 9.0 16.0 0.00 0.00 0.00 40 1012.7
20260505235633 79 358 5.0 9.0 0.00 0.00 0.00 40 1012.8
20260505234634 79 13 6.0 9.0 0.00 0.00 0.00 40 1012.9
20260505233635 80 8 7.0 11.0 0.00 0.00 0.00 40 1012.9
20260505232633 81 22 3.0 7.0 0.00 0.00 0.00 39 1012.9
20260505231633 80 27 7.0 11.0 0.00 0.00 0.00 38 1013.0
20260505230633 80 333 6.0 10.0 0.00 0.00 0.00 38 1013.0
20260505225633 80 13 7.0 13.0 0.00 0.00 0.00 39 1013.0
20260505224654 80 259 6.0 10.0 0.00 0.00 0.00 38 1013.1
20260505223633 80 285 5.0 12.0 0.00 0.00 0.00 39 1013.1
20260505222635 80 19 6.0 14.0 0.00 0.00 0.00 39 1013.1
20260505221633 79 9 9.0 16.0 0.00 0.00 0.00 41 1013.2
20260505220653 81 42 5.0 10.0 0.00 0.00 0.00 40 1013.2
20260505215633 79 21 5.0 10.0 0.00 0.00 0.00 42 1013.2
20260505214633 79 25 7.0 13.0 0.00 0.00 0.00 40 1013.3
20260505213633 80 59 7.0 13.0 0.00 0.00 0.00 41 1013.3
20260505212633 79 155 4.0 9.0 0.00 0.00 0.00 42 1013.5
20260505211633 78 9 5.0 9.0 0.00 0.00 0.00 44 1013.5
20260505210633 78 353 7.0 11.0 0.00 0.00 0.00 43 1013.5
20260505205653 78 62 6.0 11.0 0.00 0.00 0.00 43 1013.6
20260505204633 76 97 5.0 12.0 0.00 0.00 0.00 45 1013.7
20260505203633 77 20 6.0 11.0 0.00 0.00 0.00 44 1013.7
20260505202635 77 22 7.0 12.0 0.00 0.00 0.00 43 1013.8
20260505201633 76 24 7.0 12.0 0.00 0.00 0.00 43 1013.9
20260505200653 76 29 6.0 10.0 0.00 0.00 0.00 45 1013.9
20260505195633 76 40 6.0 10.0 0.00 0.00 0.00 45 1014.0
20260505194633 76 28 4.0 8.0 0.00 0.00 0.00 47 1014.1
20260505193633 75 14 5.0 9.0 0.00 0.00 0.00 47 1014.1
20260505192633 75 25 5.0 12.0 0.00 0.00 0.00 47 1014.2
20260505191714 75 20 4.0 10.0 0.00 0.00 0.00 48 1014.3
20260505190634 73 43 5.0 10.0 0.00 0.00 0.00 49 1014.3
20260505185633 74 24 4.0 8.0 0.00 0.00 0.00 51 1014.4
20260505184634 74 314 2.0 3.0 0.00 0.00 0.00 51 1014.4
20260505183633 72 37 3.0 9.0 0.00 0.00 0.00 52 1014.4
20260505182634 71 32 2.0 7.0 0.00 0.00 0.00 54 1014.4
20260505181635 72 358 0.0 2.0 0.00 0.00 0.00 54 1014.4
20260505180633 71 285 3.0 8.0 0.00 0.00 0.00 54 1014.5